Regional Weather Roundup
Issued by NWS

Home | Current Version | Previous Version | Text Only | Print | Product List | Glossary Off
Versions: 1 2 3 4 5 6 7 8 9 10 11 12 13 14 15 16 17 18 19 20 21 22 23 24 25 26 27 28 29 30 31 32 33 34 35 36 37 38 39 40 41 42 43 44 45 46 47 48 49 50

000
ASUS43 KFSD 221802
RWRSD

WEATHER ROUNDUP FOR SOUTH DAKOTA
NATIONAL WEATHER SERVICE SIOUX FALLS SD
100 PM CDT WED OCT 22 2014

NOTE: "FAIR" INDICATES FEW OR NO CLOUDS BELOW 12,000 FEET WITH NO
SIGNIFICANT WEATHER AND/OR OBSTRUCTIONS TO VISIBILITY.


SDZ001>005-009-010-012>017-221900-
NORTHWEST AND NORTH CENTRAL SOUTH DAKOTA

CITY           SKY/WX    TMP DP  RH WIND       PRES   REMARKS
FAITH            N/A     58  38  47 NW16G24   29.96F
MOBRIDGE       CLOUDY    57  50  77 NW7       29.90R
$$

SDZ012>016-024>037-041>051-057-063-072>074-221900-
SOUTHWEST AND SOUTH CENTRAL SOUTH DAKOTA

CITY           SKY/WX    TMP DP  RH WIND       PRES   REMARKS
RAPID CTY ARPT SUNNY     62  30  29 W6        30.02S
PIERRE         CLOUDY    57  50  77 W14       29.94F
CUSTER         SUNNY     55  23  28 W10       30.06R
ELLSWORTH AFB  SUNNY     62  30  29 NW12      30.01F
PHILIP         CLOUDY    61  39  44 NW15      29.99S
PINE RIDGE     MOSUNNY   58  40  51 NW6       30.05S
SPEARFISH      FAIR      57  28  33 W14G20    30.04S
WINNER         CLOUDY    55  51  86 NW9       29.99S
$$

SDZ004>011-016>023-039-040-221900-
NORTHEAST SOUTH DAKOTA

CITY           SKY/WX    TMP DP  RH WIND       PRES   REMARKS
ABERDEEN       LGT RAIN  59  50  72 W8        29.91R
WATERTOWN      FAIR      64  49  57 S23       29.91S
$$

SDZ017-020-022-023-036>040-048>070-221900-
SOUTHEAST SOUTH DAKOTA

CITY           SKY/WX    TMP DP  RH WIND       PRES   REMARKS
SIOUX FALLS    PTSUNNY   67  51  56 S18G25    29.97F
HURON          CLOUDY    65  51  60 W15       29.90S
CHAMBERLAIN    DRIZZLE   54  51  89 W10       29.96S
MITCHELL       CLOUDY    69  50  50 W17       29.94R
YANKTON        FAIR      68  52  56 S9        29.96F
$$

ABBREVIATIONS USED IN REMARKS
   TC - TEMPERATURE IN CELSIUS
  WCI - WIND CHILL INDEX
   HX - HEAT INDEX
  VSB - VISIBILITY




USA.gov is the U.S. government's official web portal to all federal, state and local government web resources and services.